This is the latest recevied weather packets stored in our database for station/object APPOWX. If no packets are shown the sender has not sent any weather packets the latest 1 day(s).
| Time | Temp. | Humidity | Pressure | Rain* | Wind** | Luminosity | Snow |
|---|---|---|---|---|---|---|---|
| 1777997204 | 24.44° C | 42% | 1017.6 hPa | 0 mm | 0 m/s | - | - |
| 1777997143 | 24.44° C | 46% | 1017.6 hPa | 0 mm | 0.89 m/s, 83° | - | - |
| 1777997083 | 24.44° C | 47% | 1017.5 hPa | 0 mm | 0.45 m/s, 71° | - | - |
| 1777997023 | 24.44° C | 46% | 1017.5 hPa | 0 mm | 0.89 m/s, 78° | - | - |
| 1777996964 | 24.44° C | 44% | 1017.4 hPa | 0 mm | 0.45 m/s, 33° | - | - |
| 1777996903 | 24.44° C | 44% | 1017.3 hPa | 0 mm | 0 m/s | - | - |
| 1777996843 | 24.44° C | 42% | 1017.4 hPa | 0 mm | 1.34 m/s, 78° | - | - |
| 1777996784 | 23.33° C | 46% | 1017.4 hPa | 0 mm | 0 m/s | - | - |
| 1777996722 | 23.33° C | 45% | 1017.4 hPa | 0 mm | 0 m/s | - | - |
| 1777996662 | 23.33° C | 45% | 1017.5 hPa | 0 mm | 0 m/s | - | - |
| 1777996601 | 23.33° C | 47% | 1017.5 hPa | 0 mm | 0.45 m/s, 65° | - | - |
| 1777996541 | 23.33° C | 44% | 1017.5 hPa | 0 mm | 0.89 m/s, 32° | - | - |
| 1777996482 | 23.33° C | 43% | 1017.3 hPa | 0 mm | 0.45 m/s, 87° | - | - |
| 1777996422 | 23.33° C | 44% | 1017.5 hPa | 0 mm | 0.45 m/s, 40° | - | - |
| 1777996361 | 23.33° C | 46% | 1017.7 hPa | 0 mm | 0 m/s | - | - |
| 1777996301 | 23.33° C | 45% | 1017.5 hPa | 0 mm | 0.45 m/s, 61° | - | - |
| 1777996241 | 23.33° C | 45% | 1017.5 hPa | 0 mm | 0.89 m/s, 44° | - | - |
| 1777996180 | 23.33° C | 45% | 1017.6 hPa | 0 mm | 0.89 m/s, 34° | - | - |
| 1777996120 | 23.33° C | 44% | 1017.5 hPa | 0 mm | 0.45 m/s, 30° | - | - |
| 1777996060 | 23.89° C | 44% | 1017.6 hPa | 0 mm | 0.45 m/s, 55° | - | - |
| 1777996001 | 24.44° C | 43% | 1017.6 hPa | 0 mm | 0 m/s | - | - |
| 1777995940 | 23.89° C | 45% | 1017.6 hPa | 0 mm | 0.89 m/s, 334° | - | - |
| 1777995879 | 23.89° C | 45% | 1017.5 hPa | 0 mm | 0.45 m/s, 58° | - | - |
| 1777995819 | 23.89° C | 48% | 1017.6 hPa | 0 mm | 0.45 m/s, 73° | - | - |
| 1777995759 | 23.33° C | 47% | 1017.3 hPa | 0 mm | 0 m/s | - | - |
* Rain latest hour (hover to see other rain measurements)
** Current wind speed in m/s (hover to see current wind gust speed)